Theta_e
300 304 304 302 299 300 302 302 302 302 296 297 300 301 301 302 299 300 301 300 299 297 295 292 291 289 288 288 287 287 287 287 288 288 289 288 287 286 286 285 285 285 285 285
300 301 295 295 296 299 300 301 302 299 295 295 299 298 300 301 300 300 300 301 299 298 296 292 291 290 289 288 288 287 287 287 287 287 287 287 287 286 285 285 285 284 284 284
301 294 292 294 296 298 298 299 299 297 296 296 296 301 302 300 299 300 299 300 300 298 296 293 291 290 289 288 288 287 286 286 286 286 286 286 286 286 286 286 285 284 284 284
294 291 293 295 295 295 298 293 294 295 298 300 297 299 302 302 300 298 298 298 299 299 297 294 292 291 290 289 288 287 287 286 286 286 287 288 288 287 285 285 285 284 284 284
293 292 293 295 292 292 295 293 295 295 297 297 298 298 302 300 301 301 300 298 298 299 298 296 293 291 290 289 288 288 287 286 285 286 287 287 287 286 285 285 285 285 284 283
290 289 291 292 290 292 293 295 295 296 297 303 298 297 301 302 301 300 299 298 298 298 298 296 294 292 291 289 289 288 287 286 286 286 286 286 287 286 286 286 286 285 284 284
291 290 289 290 293 293 294 297 304 306 307 307 295 296 301 302 299 298 298 297 297 297 297 296 295 292 291 290 289 288 287 287 286 286 286 286 286 286 286 286 285 285 285 284
299 298 291 289 292 296 295 298 306 304 302 301 294 298 304 299 297 297 296 296 295 296 296 296 295 293 291 290 289 288 288 287 286 286 286 286 285 285 285 285 285 284 284 283
300 294 288 288 289 292 295 296 295 301 292 297 299 301 302 298 298 298 296 295 296 295 296 296 295 293 291 290 290 289 288 288 287 286 286 286 285 285 285 285 284 284 283 282
296 296 289 288 289 290 292 293 296 298 303 303 300 300 300 300 299 298 297 297 296 295 294 295 294 293 292 291 290 289 289 288 288 287 287 286 286 285 285 285 285 284 284 283
297 301 290 288 290 293 290 294 294 296 298 302 300 301 307 300 298 298 296 296 296 295 294 294 294 293 292 291 290 290 289 289 288 288 287 287 286 286 285 285 284 284 284 283
295 304 295 295 288 287 290 295 296 299 300 295 297 299 298 298 297 296 295 294 295 294 294 294 293 294 292 291 290 290 289 289 288 288 287 287 286 286 285 285 285 284 284 283
294 301 301 296 291 288 289 290 293 293 294 299 300 299 294 294 295 295 294 293 294 293 293 293 293 293 292 291 290 289 289 288 288 288 287 287 286 286 285 285 285 284 284 283
292 297 302 306 302 295 292 291 291 295 297 296 297 297 297 297 297 297 295 294 293 293 293 292 292 292 292 291 290 289 288 288 287 287 287 286 286 286 285 285 284 284 284 283
291 295 289 291 291 291 294 291 291 292 295 298 297 298 299 299 296 294 294 292 292 292 292 292 291 291 291 290 289 288 288 287 287 286 286 286 286 285 284 284 284 284 283 283
284 295 285 291 289 288 289 290 290 291 292 293 295 295 296 296 294 293 293 292 291 291 291 291 291 289 289 289 288 288 287 287 286 286 286 285 285 284 284 284 284 283 283 283
288 289 291 296 288 289 293 288 290 290 292 293 294 296 296 295 292 291 291 291 290 290 289 289 290 289 289 288 288 288 287 286 285 285 285 285 284 284 284 284 283 283 283 282
289 291 293 296 289 295 296 289 290 291 293 292 294 294 293 292 291 289 288 288 289 289 289 289 289 289 288 288 287 287 286 285 284 284 284 284 283 283 283 282 282 282 282 282
285 291 292 296 296 296 294 288 289 290 295 292 293 292 292 291 289 289 287 286 287 287 287 288 287 287 286 285 285 284 284 283 283 282 282 281 281 281 281 281 281 281 281 281
283 285 293 288 295 298 295 288 287 288 292 292 293 293 291 289 293 293 285 286 285 284 284 284 283 282 281 281 282 282 280 279 278 278 278 278 278 278 279 279 278 278 278 279
286 287 290 293 293 296 293 286 286 295 296 288 290 290 289 291 289 286 284 283 281 280 281 280 278 276 275 275 278 277 275 273 273 274 275 276 276 276 276 276 276 277 277 277
289 290 289 291 291 292 287 285 289 291 287 287 287 287 287 286 285 283 281 280 278 277 276 277 276 273 270 272 273 273 271 270 271 272 273 273 273 273 274 274 275 276 276 276
291 293 292 293 292 288 287 288 286 286 287 286 286 284 283 285 283 282 279 276 274 273 273 273 273 271 269 269 269 269 268 268 269 270 270 270 271 271 272 272 273 273 275 276
286 286 290 289 291 288 286 285 284 283 283 281 280 279 281 281 280 278 277 275 274 272 271 270 271 270 269 267 267 266 265 266 266 267 267 268 269 269 270 271 272 273 274 274
288 286 289 288 287 285 285 286 283 279 278 277 275 276 277 277 275 275 274 272 271 270 269 268 268 268 267 265 265 264 263 263 264 264 265 266 267 267 268 269 270 271 271 272
285 289 289 291 289 288 283 279 278 278 276 276 274 273 271 272 272 272 270 269 268 268 266 266 265 264 264 263 263 262 262 262 262 262 264 264 264 265 266 267 268 269 270 271
Wind_Speed
2 5 2 6 3 3 3 3 5 1 4 5 9 15 15 11 14 16 16 16 15 14 14 15 14 12 10 8 6 5 5 4 3 3 3 5 7 8 9 11 13 14 15 15
4 3 3 1 0 1 1 2 4 2 1 3 10 19 22 17 19 17 18 16 15 14 13 16 16 14 13 11 9 7 5 4 4 4 4 4 5 7 7 8 11 12 13 14
1 5 2 1 3 3 1 3 2 4 7 5 11 9 2 1 9 14 14 15 15 16 16 16 19 18 15 13 12 9 7 6 5 5 5 5 4 5 5 7 7 11 12 13
7 3 2 4 3 2 2 2 1 3 5 4 4 7 11 3 4 7 11 13 15 16 16 19 21 20 19 16 13 11 9 7 5 4 4 3 4 5 5 5 6 6 9 11
3 3 3 3 3 4 4 1 1 2 4 4 6 4 4 3 4 9 2 7 12 15 17 17 22 22 20 17 15 13 11 9 7 5 4 4 5 5 4 3 4 5 6 9
5 2 3 3 3 2 6 2 2 2 3 3 3 3 2 2 4 6 4 4 6 11 15 19 21 21 20 18 16 14 13 10 8 6 5 4 4 4 3 2 2 3 4 5
4 3 3 1 4 3 3 4 2 2 2 3 3 4 7 10 6 5 9 7 5 7 13 15 20 21 21 21 19 16 15 13 11 8 7 5 4 3 2 2 1 2 2 4
7 3 4 1 3 2 5 2 3 4 3 3 2 6 2 3 4 6 5 4 4 5 10 15 21 22 22 21 20 18 17 15 14 12 10 8 6 4 3 3 2 1 1 2
4 3 3 3 1 2 4 4 3 2 2 2 6 5 4 6 4 4 5 3 2 3 8 13 20 23 23 23 23 21 19 17 16 15 12 10 7 6 4 4 4 3 3 2
4 4 1 2 1 3 3 1 3 2 2 5 5 5 8 6 3 6 8 8 4 1 5 10 19 21 21 21 21 20 19 18 17 15 13 11 9 8 7 6 7 6 5 6
1 1 3 1 7 7 4 4 3 1 2 3 5 4 3 5 2 3 4 5 5 3 3 7 16 21 23 21 22 21 20 18 17 17 15 13 11 10 9 9 9 9 9 8
4 2 4 3 2 3 2 4 7 4 6 2 3 8 4 4 2 3 2 4 4 3 3 8 17 21 22 23 23 23 21 20 19 17 16 15 12 11 11 10 10 12 13 11
6 4 3 3 2 0 5 8 6 1 1 7 5 6 2 3 4 4 4 5 4 5 6 6 12 19 21 23 23 23 22 21 19 16 15 15 14 12 11 11 12 13 15 15
3 2 3 3 4 5 5 8 15 7 4 7 14 22 8 9 8 6 2 6 11 6 4 5 8 14 18 19 21 22 20 18 17 17 17 16 15 14 13 12 13 14 15 15
3 4 0 3 3 3 2 5 13 14 16 10 18 20 11 6 2 7 11 9 9 9 7 5 6 10 16 18 18 16 15 15 16 17 17 16 16 14 13 13 13 14 15 16
0 3 3 3 3 6 5 9 11 19 16 21 23 24 18 12 10 7 7 9 9 8 7 6 4 9 13 17 18 17 15 15 17 17 16 14 15 16 14 13 13 14 16 17
7 6 4 3 2 3 9 18 20 14 10 19 15 22 9 5 3 5 9 9 9 8 7 7 5 6 9 13 14 13 15 15 16 14 13 13 13 13 12 12 13 15 17 18
6 4 3 0 1 6 1 2 8 18 14 19 15 15 4 2 4 3 4 6 7 5 7 6 4 1 4 6 7 7 8 9 9 8 8 7 9 11 11 13 15 16 18 20
1 4 4 4 6 9 9 7 8 9 7 20 21 19 11 1 1 4 7 6 6 7 9 8 9 9 9 8 5 7 9 9 8 7 3 4 5 8 11 15 17 20 21 23
2 2 3 3 5 7 4 5 5 3 8 4 11 10 8 7 6 4 6 6 10 13 13 12 12 13 14 13 9 10 10 8 7 3 3 6 9 12 15 18 21 22 22 23
5 4 12 9 8 8 4 9 6 6 3 5 6 6 8 3 4 4 6 9 12 12 13 11 13 14 13 13 10 11 9 10 8 9 10 11 13 15 16 18 20 22 22 23
11 12 6 7 8 12 12 8 7 2 3 6 7 7 7 5 6 7 7 8 10 11 13 13 11 12 13 13 11 10 9 10 12 13 13 15 16 16 16 18 21 21 20 19
6 5 7 12 8 3 13 4 5 2 6 4 5 4 3 3 4 5 6 8 10 11 11 12 10 10 13 14 13 10 9 13 15 15 16 16 16 16 16 18 17 17 14 15
6 2 2 3 5 6 9 4 3 4 7 6 6 4 3 5 4 5 5 6 6 8 10 10 9 10 11 12 11 10 11 15 16 16 16 17 17 17 16 16 15 15 15 15
2 10 7 4 3 2 3 8 7 7 8 8 8 8 6 7 6 5 5 6 6 6 8 8 9 9 9 11 11 12 14 17 16 16 16 15 14 16 17 16 16 17 18 17
6 6 6 5 4 0 4 8 6 8 7 6 8 8 10 8 6 5 6 6 6 6 7 7 8 8 10 11 11 13 15 15 16 15 14 15 17 18 17 18 21 18 19 20
Wind_Direction
109 207 149 59 27 9 13 320 303 88 47 300 268 277 275 223 222 235 231 223 219 217 200 184 182 178 173 171 163 151 139 138 151 129 100 74 69 62 55 47 43 38 35 33
172 149 99 128 79 129 183 273 288 146 51 274 299 286 274 257 242 230 236 230 223 215 197 187 188 185 186 182 177 168 156 138 131 127 113 102 85 74 69 53 43 41 37 35
149 99 125 199 131 149 15 295 330 305 314 238 294 269 201 148 262 237 236 243 229 221 208 195 195 191 189 187 184 177 166 148 133 127 118 104 89 89 67 49 41 37 37 35
71 95 143 158 113 312 218 35 289 291 307 324 346 291 312 342 266 243 251 230 232 217 214 203 200 194 192 191 184 179 173 162 149 131 128 114 93 94 81 64 52 40 38 34
107 125 133 160 47 332 56 122 346 305 281 312 172 259 107 54 28 39 18 243 240 226 214 206 202 197 192 187 185 182 179 175 167 152 139 119 106 106 97 77 58 44 32 32
86 69 12 72 97 44 135 149 186 241 287 255 78 273 296 107 29 344 328 333 271 227 213 209 202 196 190 185 185 185 185 183 180 172 164 154 143 137 125 98 64 40 29 24
140 78 99 234 128 155 231 210 197 222 214 268 104 257 274 316 5 317 306 318 321 225 209 204 198 194 190 187 187 188 190 191 189 187 189 185 175 164 152 147 94 52 28 20
175 197 172 72 333 322 196 290 258 239 234 355 154 238 228 114 313 337 301 296 302 248 208 205 201 196 194 191 191 191 192 192 193 196 199 199 198 199 207 209 211 239 7 5
144 124 125 57 337 330 152 220 35 62 90 268 241 222 234 135 120 26 21 9 352 275 217 206 206 199 199 194 196 196 195 196 197 198 198 204 208 216 228 241 248 255 273 297
159 112 319 103 208 129 289 17 162 177 246 260 247 262 254 187 108 67 49 31 26 289 239 211 206 205 205 199 199 198 199 200 199 198 201 205 213 221 233 246 252 253 256 281
112 265 128 245 206 183 167 211 214 321 211 247 284 260 55 147 153 111 56 32 25 13 255 232 218 208 204 199 197 199 200 199 199 199 201 205 212 224 236 247 257 257 258 263
177 44 158 168 86 356 346 281 208 216 176 210 306 271 191 181 224 190 138 36 37 1 263 224 216 211 206 201 196 194 196 199 203 203 204 210 218 226 239 252 265 272 265 262
183 193 141 192 185 307 218 191 236 354 46 202 243 252 162 166 216 197 254 329 315 310 282 249 236 215 208 201 197 194 194 199 200 202 207 214 220 224 237 255 263 267 270 264
175 181 244 257 78 110 194 204 205 194 206 238 223 262 210 244 253 254 280 285 322 325 301 267 239 232 217 210 200 194 194 195 197 205 212 217 218 224 235 249 256 265 264 265
210 214 120 279 233 192 176 178 196 206 217 221 258 254 253 269 306 299 308 320 308 315 320 282 254 234 220 210 204 198 191 194 200 211 220 219 218 221 233 244 255 260 258 262
43 165 142 257 193 222 237 227 212 216 232 250 257 273 278 306 291 281 309 311 306 316 331 326 267 233 216 204 203 196 190 196 209 215 218 215 212 223 235 246 255 258 259 258
164 151 162 246 22 310 267 206 207 213 212 222 238 246 266 239 272 330 321 320 317 320 330 331 304 237 205 199 198 195 205 212 213 211 209 208 216 229 241 251 256 261 263 265
147 169 186 138 143 243 342 111 201 221 241 219 251 252 165 246 305 320 22 334 331 345 345 349 348 269 187 187 185 176 179 183 185 189 195 207 225 240 250 259 263 268 270 269
359 165 174 217 211 309 246 189 178 176 258 219 229 247 249 212 230 144 24 12 23 16 17 38 51 68 75 71 87 118 115 117 119 113 107 218 252 270 274 276 279 281 283 282
103 354 238 153 228 241 56 133 129 153 273 179 215 229 216 162 194 119 39 39 50 46 43 57 65 67 57 38 50 79 78 89 76 37 325 303 296 289 288 289 288 289 289 288
168 193 218 207 242 277 119 137 143 180 302 112 139 126 135 151 42 92 65 64 63 54 45 55 60 57 42 32 43 59 53 39 3 341 327 318 309 303 298 294 291 293 297 294
171 171 191 198 221 256 137 126 199 76 41 107 104 100 100 79 88 94 89 69 56 51 42 43 55 48 34 31 36 40 30 354 342 336 329 322 316 310 301 298 301 302 302 293
214 222 177 194 206 106 188 60 100 92 141 124 127 89 75 118 107 101 86 70 59 48 40 36 42 39 23 23 21 22 358 343 338 335 330 327 322 322 315 312 310 311 304 289
221 177 219 162 180 202 185 113 122 87 114 102 80 69 50 107 89 97 91 71 57 46 35 25 28 27 21 10 8 2 342 338 338 333 332 330 329 324 325 315 312 306 300 292
109 152 171 247 193 121 189 206 161 126 111 104 84 75 78 107 85 89 81 63 48 40 30 27 23 14 4 356 357 351 341 341 341 338 336 333 327 325 320 314 308 302 293 287
186 172 194 233 124 69 96 136 136 135 124 120 120 95 69 79 80 82 76 55 34 24 15 15 13 4 353 348 344 339 337 338 338 334 331 325 322 318 316 313 311 304 295 294